Temp
-8 -7 -6 -7 -6 -6 -6 -6 -5 -5 -5 -6 -5 -5 -6 -6 -6 -6 -6 -7 -7 -6 -6 -6 -6 -6 -6 -6 -6 -6 -5 -5 -5
-7 -7 -6 -7 -7 -6 -6 -6 -6 -5 -5 -5 -6 -6 -6 -6 -6 -6 -6 -6 -6 -6 -6 -6 -6 -6 -7 -7 -6 -6 -6 -6 -6
-6 -6 -7 -7 -7 -7 -7 -7 -6 -6 -5 -5 -5 -6 -6 -6 -6 -6 -6 -6 -6 -6 -7 -7 -7 -7 -7 -7 -7 -6 -6 -6 -6
-7 -6 -6 -7 -7 -7 -7 -7 -7 -6 -6 -6 -6 -6 -6 -6 -6 -6 -6 -6 -6 -6 -6 -7 -7 -7 -7 -7 -7 -6 -6 -6 -6
-7 -7 -6 -7 -7 -7 -7 -7 -7 -7 -7 -7 -6 -6 -6 -6 -7 -6 -6 -6 -6 -6 -6 -6 -6 -7 -7 -7 -6 -6 -6 -6 -6
-7 -7 -7 -8 -7 -8 -8 -8 -8 -7 -7 -7 -7 -7 -7 -7 -7 -7 -7 -6 -6 -6 -6 -6 -6 -6 -6 -6 -6 -6 -6 -6 -6
-9 -8 -7 -8 -8 -8 -8 -8 -8 -8 -7 -7 -7 -7 -7 -7 -7 -7 -7 -7 -6 -6 -6 -6 -6 -6 -6 -6 -6 -6 -6 -6 -6
-7 -9 -9 -8 -8 -9 -8 -8 -8 -8 -8 -8 -8 -8 -8 -8 -8 -7 -7 -7 -7 -7 -6 -6 -6 -6 -6 -7 -7 -7 -7 -7 -7
-7 -8 -8 -9 -9 -8 -8 -9 -8 -8 -9 -8 -8 -8 -8 -8 -8 -8 -7 -7 -7 -7 -7 -6 -6 -6 -6 -6 -7 -7 -7 -7 -7
-7 -9 -9 -9 -9 -8 -8 -9 -9 -9 -9 -9 -8 -8 -9 -9 -8 -8 -8 -8 -8 -7 -7 -7 -7 -7 -6 -6 -6 -7 -7 -7 -7
-5 -10 -9 -9 -9 -9 -9 -9 -9 -9 -9 -9 -9 -9 -9 -9 -9 -9 -8 -8 -8 -8 -8 -8 -8 -8 -8 -7 -7 -7 -7 -7 -7
-9 -10 -10 -10 -9 -9 -9 -10 -9 -9 -10 -10 -9 -9 -9 -9 -9 -9 -8 -8 -8 -8 -8 -8 -8 -8 -8 -8 -8 -7 -7 -7 -7
-10 -10 -10 -10 -10 -9 -9 -10 -10 -10 -10 -10 -10 -9 -9 -9 -9 -9 -9 -9 -9 -9 -8 -8 -8 -9 -8 -9 -9 -8 -8 -8 -8
-12 -11 -9 -10 -10 -10 -10 -10 -10 -10 -10 -10 -10 -10 -9 -9 -9 -9 -9 -9 -9 -9 -8 -8 -8 -8 -8 -9 -9 -8 -8 -8 -8
-12 -11 -11 -11 -11 -10 -10 -10 -10 -10 -10 -10 -10 -10 -10 -10 -9 -9 -9 -9 -9 -9 -9 -9 -8 -9 -9 -9 -9 -9 -9 -10 -8
-13 -12 -11 -11 -11 -11 -11 -10 -10 -10 -10 -10 -10 -10 -10 -10 -10 -10 -9 -9 -9 -8 -8 -9 -9 -9 -9 -7 -8 -9 -9 -8 -10
-12 -12 -13 -12 -11 -11 -11 -11 -11 -10 -10 -10 -10 -10 -10 -10 -10 -10 -10 -10 -9 -9 -9 -9 -9 -9 -10 -9 -9 -9 -8 -8 -9
-12 -12 -12 -12 -12 -11 -11 -11 -11 -10 -10 -11 -10 -10 -10 -10 -10 -10 -10 -10 -10 -10 -9 -9 -9 -9 -9 -9 -8 -8 -8 -8 -8
-12 -12 -12 -12 -12 -11 -12 -12 -12 -11 -11 -11 -11 -10 -10 -10 -10 -10 -10 -10 -10 -10 -9 -9 -9 -9 -9 -9 -8 -9 -10 -9 -8
-12 -12 -12 -13 -13 -12 -12 -12 -12 -12 -12 -12 -11 -12 -11 -11 -10 -10 -10 -11 -10 -10 -10 -10 -10 -9 -8 -8 -8 -9 -10 -9 -8
Height
5908 5907 5906 5905 5905 5905 5904 5903 5902 5901 5901 5901 5902 5902 5904 5905 5906 5907 5908 5909 5909 5910 5909 5909 5911 5915 5918 5922 5925 5928 5931 5932 5933
5904 5904 5904 5904 5903 5903 5901 5901 5901 5901 5900 5900 5901 5901 5902 5903 5904 5905 5906 5906 5907 5908 5907 5907 5905 5910 5914 5917 5920 5923 5925 5927 5928
5900 5900 5900 5901 5901 5900 5900 5899 5899 5900 5899 5899 5900 5900 5901 5901 5902 5903 5904 5904 5905 5906 5906 5906 5908 5909 5912 5914 5917 5919 5921 5922 5924
5895 5894 5895 5897 5897 5897 5898 5898 5897 5897 5898 5898 5898 5899 5899 5899 5900 5901 5902 5902 5903 5904 5904 5906 5907 5909 5911 5913 5914 5916 5919 5920 5921
5892 5888 5889 5891 5892 5893 5894 5895 5895 5895 5895 5895 5896 5896 5897 5898 5898 5899 5900 5900 5901 5902 5902 5903 5904 5906 5908 5910 5912 5914 5916 5916 5916
5887 5883 5882 5882 5885 5889 5889 5891 5892 5893 5893 5894 5894 5894 5895 5895 5896 5898 5898 5899 5899 5899 5900 5901 5901 5902 5903 5905 5906 5908 5909 5910 5911
5872 5876 5874 5876 5876 5879 5884 5885 5888 5889 5890 5890 5891 5892 5892 5893 5894 5896 5897 5898 5898 5898 5897 5898 5899 5899 5900 5901 5902 5903 5904 5905 5906
5861 5859 5863 5866 5869 5869 5874 5879 5882 5883 5885 5886 5888 5889 5890 5891 5892 5894 5895 5896 5896 5897 5897 5896 5896 5896 5896 5896 5897 5898 5899 5901 5902
5844 5809 5851 5855 5858 5860 5866 5870 5875 5878 5879 5882 5883 5885 5887 5889 5890 5891 5892 5893 5894 5894 5894 5894 5894 5893 5893 5893 5894 5895 5896 5897 5898
5834 5835 5841 5845 5851 5850 5858 5864 5867 5870 5874 5876 5879 5881 5882 5884 5886 5887 5888 5889 5889 5890 5891 5891 5891 5891 5891 5891 5891 5891 5891 5892 5893
5769 5777 5820 5835 5842 5845 5846 5853 5858 5862 5865 5869 5872 5874 5877 5878 5881 5882 5883 5885 5885 5885 5886 5887 5887 5888 5888 5889 5889 5889 5890 5890 5889
5800 5799 5805 5824 5830 5835 5835 5842 5848 5852 5855 5861 5864 5867 5869 5871 5873 5875 5876 5878 5879 5880 5881 5881 5882 5883 5884 5885 5885 5885 5885 5886 5887
5801 5810 5815 5818 5818 5821 5826 5832 5836 5841 5845 5849 5854 5858 5862 5863 5864 5865 5867 5869 5871 5873 5873 5875 5874 5875 5876 5877 5877 5878 5879 5881 5881
5794 5801 5811 5789 5806 5814 5817 5823 5828 5829 5833 5839 5844 5848 5852 5852 5854 5854 5857 5859 5861 5861 5864 5865 5866 5867 5867 5868 5869 5870 5870 5869 5871
5785 5788 5789 5796 5799 5802 5808 5812 5815 5819 5822 5828 5833 5836 5838 5842 5844 5847 5849 5851 5851 5854 5854 5855 5857 5856 5856 5857 5855 5859 5861 5862 5864
5769 5771 5775 5779 5784 5787 5794 5798 5800 5803 5808 5814 5819 5823 5828 5831 5835 5838 5839 5840 5838 5833 5833 5842 5846 5847 5846 5842 5836 5849 5851 5853 5853
5755 5756 5760 5764 5767 5774 5777 5782 5787 5791 5796 5799 5804 5810 5814 5817 5822 5824 5826 5828 5828 5832 5833 5834 5838 5838 5840 5840 5841 5842 5841 5842 5841
5744 5745 5747 5750 5755 5759 5762 5764 5770 5776 5778 5785 5790 5793 5796 5800 5805 5808 5810 5812 5815 5821 5822 5824 5828 5830 5830 5830 5832 5833 5830 5824 5818
5730 5732 5734 5736 5739 5743 5750 5753 5755 5760 5763 5768 5773 5777 5781 5783 5785 5788 5795 5796 5798 5803 5808 5809 5814 5817 5818 5819 5821 5820 5816 5818 5812
5719 5719 5720 5723 5725 5728 5733 5739 5743 5746 5749 5753 5758 5763 5765 5764 5769 5770 5774 5779 5784 5788 5791 5796 5800 5804 5806 5808 5808 5809 5810 5812 5813
Wind_Speed
16 12 15 12 10 9 9 10 9 7 5 4 5 5 6 9 11 13 13 15 16 16 16 16 20 20 22 21 19 17 17 17 16
18 14 14 12 12 12 12 12 10 9 8 6 6 5 6 6 7 9 10 13 12 8 9 8 11 25 22 20 19 18 18 18 17
19 17 17 14 14 12 11 12 11 10 9 9 6 6 6 7 8 7 7 9 11 14 10 6 5 12 17 19 15 15 18 18 18
17 20 18 17 16 14 10 11 12 10 8 9 9 7 7 9 9 9 8 9 9 12 12 12 10 11 13 14 14 15 16 18 18
20 25 22 19 18 16 13 11 12 7 6 7 7 10 9 8 8 8 8 9 11 10 12 12 15 17 17 14 16 17 17 18 19
20 26 27 25 22 17 15 11 14 14 10 9 8 9 11 11 11 10 9 9 11 12 12 12 12 13 15 17 19 19 19 22 22
30 24 30 28 27 23 18 15 15 15 14 13 10 10 9 9 10 11 12 12 11 12 13 12 13 12 12 12 15 17 19 20 19
19 29 32 32 30 28 23 20 17 19 15 12 11 8 6 6 7 9 11 12 12 13 14 16 16 13 13 13 14 16 18 18 18
43 30 30 33 33 34 29 26 24 20 20 16 18 16 13 11 10 10 10 11 11 13 14 16 17 18 18 16 16 18 18 19 20
64 44 36 35 39 37 33 29 30 28 23 25 24 20 21 20 17 14 13 11 12 15 15 16 18 21 21 22 22 22 22 21 21
19 44 36 36 38 38 38 40 36 33 31 28 30 30 27 25 24 25 23 19 15 14 14 17 18 21 24 24 25 25 26 26 24
27 34 36 38 43 43 40 39 42 40 35 35 34 37 33 32 31 28 30 28 26 24 22 19 18 21 22 25 28 28 28 27 26
43 30 39 47 46 46 47 48 44 40 42 41 39 39 37 36 33 34 34 34 33 32 30 24 21 20 21 25 28 30 30 29 29
57 53 56 24 46 53 48 46 46 47 44 44 45 45 43 41 39 39 38 40 40 39 36 32 30 28 27 25 27 31 34 34 29
56 52 53 56 45 50 52 55 53 51 50 50 51 49 43 43 43 41 41 41 41 38 37 36 36 35 36 36 28 27 33 36 39
56 49 52 48 55 53 54 59 62 63 56 55 55 54 52 49 48 47 46 45 42 39 32 32 36 39 42 47 21 29 36 41 46
55 55 55 49 51 53 57 60 59 59 66 61 59 58 58 56 54 55 54 54 54 48 44 44 43 42 37 38 39 38 35 45 48
44 50 53 54 53 53 59 59 56 56 56 62 67 62 64 67 64 63 63 61 61 55 53 51 47 43 42 37 36 38 34 39 58
42 44 47 52 56 57 53 53 57 58 58 59 53 69 69 73 74 72 68 66 67 61 59 62 53 49 43 39 36 33 32 34 30
38 41 41 42 44 45 46 45 51 51 48 49 55 53 55 66 75 77 80 70 70 63 64 52 45 44 40 36 35 32 32 27 24
Wind_Direction
265 279 296 309 319 328 346 345 321 298 279 252 229 238 237 229 231 237 244 244 256 282 275 262 242 232 221 221 230 233 238 248 253
255 279 289 294 298 309 322 324 318 294 279 268 246 226 236 250 246 241 245 246 248 269 261 287 254 208 208 218 222 232 242 247 247
264 272 281 282 288 301 312 307 303 292 269 263 257 245 239 239 246 248 246 245 235 242 260 243 218 211 214 223 229 240 238 237 239
267 269 271 274 283 296 294 295 292 286 270 258 255 251 248 252 251 257 259 255 243 241 247 245 245 240 240 236 241 236 230 238 247
250 261 268 273 278 289 287 287 267 251 277 283 263 253 255 249 256 258 264 263 256 247 244 235 236 237 250 254 251 248 246 249 254
268 271 265 266 268 273 277 273 258 256 265 271 263 247 239 247 249 251 254 261 270 269 251 245 237 237 240 243 244 243 244 249 248
258 244 250 254 257 265 265 279 272 264 262 273 255 242 232 246 261 261 257 258 258 268 272 262 255 244 241 244 246 245 245 246 249
229 219 225 237 244 249 258 261 265 265 262 247 222 219 224 242 266 278 271 268 267 260 259 266 266 256 245 245 242 241 242 247 250
249 192 225 228 240 251 256 260 262 260 269 246 227 230 237 253 267 272 280 281 279 273 267 262 257 256 252 244 240 242 246 249 250
264 251 223 224 225 241 251 247 255 264 257 253 240 245 248 251 261 268 272 280 281 274 271 267 266 262 254 247 243 242 242 244 249
337 208 210 223 227 234 237 242 242 247 254 257 250 249 250 253 252 262 266 269 274 280 282 271 266 265 262 260 255 252 253 256 253
265 201 207 221 229 230 233 240 243 238 245 253 254 252 252 256 253 256 262 265 267 273 278 276 276 270 269 267 264 260 261 263 262
264 255 246 231 230 232 237 234 238 238 243 246 250 250 250 253 254 253 252 258 263 266 268 272 273 271 266 261 261 260 258 258 257
267 267 250 235 226 235 234 240 240 242 243 244 248 248 251 250 250 249 247 247 252 259 263 263 265 265 267 262 261 265 262 254 249
258 255 252 253 248 246 245 240 238 240 238 241 244 249 249 248 249 253 254 254 255 258 262 266 267 265 263 256 249 258 264 258 262
252 251 249 249 245 246 245 246 242 236 236 242 244 245 248 250 251 254 254 254 256 243 254 259 270 273 286 279 279 258 265 270 259
255 254 253 250 248 250 252 249 247 249 241 240 241 246 249 249 250 249 252 253 256 257 262 266 269 274 279 279 287 284 281 289 276
257 256 256 254 248 248 250 252 253 250 254 246 242 241 245 248 250 250 250 251 258 258 260 266 265 264 270 276 277 278 286 297 300
259 260 257 255 255 260 258 256 252 253 249 244 246 246 245 245 247 250 248 251 254 259 259 261 263 268 265 267 273 279 288 293 306
261 263 263 261 259 256 257 249 253 259 267 259 251 253 256 251 246 249 251 249 252 257 261 267 257 257 260 263 270 275 278 273 289